Location: Baia Mare
(47.6567°N, 23.5850°E)
Time: 13:36:13
(UTC+03:00)

ISS - Pass Details

Date: 17 July 2019
Orbit: 409 x 418 km, 51.6° (Epoch: 21 July)

Event Time Altitude Azimuth Distance (km) Brightness Sun altitude
Rises 03:19:52 0° 292° (WNW) 2,348 0.0 -16.9°
Reaches altitude 10° 03:21:59 10° 296° (WNW) 1,483 -1.0 -16.8°
Maximum altitude 03:25:17 59° 17° (NNE) 480 -3.2 -16.5°
Drops below altitude 10° 03:28:33 10° 98° (E) 1,475 -0.7 -16.2°
Sets 03:30:39 0° 102° (ESE) 2,333 0.2 -16.1°
